Home   Weather   Taiyuan   Past weeks

Flag for China Past Weather in Taiyuan, Shanxi, China — Yesterday and Last 2 Weeks

Now
68 °F

Thunderstorms. Partly sunny.


Feels Like: 68 °F
Forecast: 61 / 89 °F
Wind: 15 mph from East

Location: Taiyuan Airport

Current Time: Jun 25, 2017 at 6:24:46 pm

Latest Report: Jun 25, 2017 at 6:00 pm


Visibility: N/A

Pressure: 29.77 "Hg (27.15 "Hg at 790m altitude)

Humidity: 69%

Dew Point: 57 °F

Location of TaiyuanLocation

Past Weather in Taiyuan — Graph

°F

Taiyuan Temperature Yesterday

Maximum temperature yesterday: 82 °F (at 1:30 pm)
Minimum temperature yesterday: 59 °F (at 3:30 am)
Average temperature yesterday: 69 °F

High & Low Weather Summary for the Past Weeks

 TemperatureHumidityPressure
High91 °F (Jun 16, 3:30 pm)94% (Jun 22, 4:00 am)30.07 "Hg (Jun 22, 4:00 am)
Low57 °F (Jun 25, 5:30 am)10% (Jun 20, 4:30 pm)29.62 "Hg (Jun 20, 5:30 pm)
Average73 °F56%29.81 "Hg
* Reported Jun 10 5:00 pm — Jun 25 5:30 pm, Taiyuan. Weather by CustomWeather, © 2017

Note: Actual official high and low records may vary slightly from our data, if they occured in-between our weather recording intervals... More about our weather records

Advertising

Taiyuan Weather History for the Previous 24 Hours

Scroll right to see more
 ConditionsComfort  
Time TempWeatherWind HumidityBarometerVisibility
5:30 pm
Sun, Jun 25
84 °FThunderstorms. Scattered clouds.13 mph35%29.71 "HgN/A
5:00 pm84 °FScattered clouds.6 mph35%29.71 "HgN/A
4:30 pm84 °FScattered clouds.8 mph35%29.71 "HgN/A
4:00 pm84 °FScattered clouds.8 mph35%29.71 "HgN/A
3:30 pm86 °FScattered clouds.6 mph31%29.74 "HgN/A
3:00 pm86 °FScattered clouds.6 mph31%29.74 "HgN/A
2:30 pm84 °FScattered clouds.6 mph37%29.74 "HgN/A
2:00 pm86 °FScattered clouds.8 mph35%29.74 "HgN/A
1:30 pm84 °FScattered clouds.6 mph35%29.77 "HgN/A
1:00 pm82 °FPassing clouds.6 mph42%29.77 "HgN/A
12:30 pm82 °FPassing clouds.8 mph42%29.77 "HgN/A
12:00 pm79 °FPassing clouds.6 mph51%29.80 "HgN/A
11:30 am79 °FPassing clouds.6 mph51%29.80 "HgN/A
11:00 am77 °FPassing clouds.6 mph54%29.80 "HgN/A
10:30 am73 °FPassing clouds.3 mph61%29.83 "HgN/A
10:00 am72 °FSunny.1 mph61%29.83 "Hg10 mi
9:30 am70 °FClear.3 mph69%29.83 "Hg5 mi
9:00 am68 °FClear.3 mph69%29.83 "Hg5 mi
8:30 am66 °FClear.1 mph73%29.83 "Hg4 mi
8:00 am64 °FClear.3 mph78%29.83 "Hg4 mi
7:30 am63 °FClear.1 mph83%29.83 "Hg4 mi
7:00 am63 °FClear.1 mph83%29.83 "Hg4 mi
6:30 am61 °FFog.1 mph88%29.83 "Hg3 mi
6:00 am59 °FFog.1 mph94%29.83 "Hg3 mi
5:30 am57 °FFog.No wind94%29.80 "Hg3 mi
5:00 am59 °FFog.No wind88%29.80 "Hg3 mi
4:30 am59 °FClear.1 mph88%29.80 "Hg4 mi
4:00 am59 °FClear.1 mph88%29.80 "Hg4 mi
3:30 am59 °FClear.No wind94%29.80 "Hg10 mi
3:00 am59 °FClear.1 mph94%29.80 "Hg10 mi
2:30 am61 °FClear.1 mph88%29.80 "Hg10 mi
2:00 am61 °FClear.1 mph88%29.80 "Hg10 mi
1:30 am63 °FClear.1 mph83%29.80 "Hg10 mi
1:00 am61 °FClear.1 mph88%29.80 "Hg10 mi
12:30 am63 °FClear.1 mph88%29.80 "Hg10 mi
12:00 am61 °FClear.1 mph94%29.80 "Hg10 mi
11:30 pm
Sat, Jun 24
63 °FClear.1 mph88%29.80 "Hg10 mi
11:00 pm63 °FClear.1 mph88%29.80 "Hg10 mi
10:30 pm63 °FClear.1 mph88%29.80 "Hg10 mi
10:00 pm66 °FClear.1 mph78%29.80 "Hg10 mi
9:30 pm66 °FClear.3 mph78%29.77 "Hg10 mi
9:00 pm66 °FPassing clouds.3 mph78%29.77 "HgN/A
8:30 pm68 °FPassing clouds.1 mph73%29.77 "HgN/A
8:00 pm68 °FPassing clouds.6 mph73%29.74 "HgN/A
7:30 pm70 °FPassing clouds.3 mph69%29.74 "HgN/A
7:00 pm70 °FPassing clouds.8 mph64%29.74 "HgN/A
6:30 pm70 °FPassing clouds.10 mph60%29.74 "HgN/A
6:00 pm70 °FPassing clouds.8 mph64%29.71 "HgN/A
Weather by CustomWeather, © 2017

See weather overviewHow to use our weather pages